www.pogodaiklimat.ru

Погода и климат >> Архив погоды >> Украина >> Житомир


ПОГОДА в Житомире

АРХИВ ПОГОДЫ в Житомире

Время (UTC), дата Ветер
(напр.,м/с)
 
Видим.   Явления Облачность Т
(С)
Тd
(С)
f
(%)
Тe
(С)
Тes
(С)
Комфортность P
(гПа)
Po
(гПа)
Тmin
(С)
Tmax
(С)
R
(мм)
R24
(мм)
S
(см)
06 14.02 ЮВ 1 10 км 10/10 360 м
[St]
-4.8 -6.8 86 -7 -7 по сезону 1020.2 992.2 -5.0 13
09 14.02 В 2 10 км {снег} 10/8 500 м
[Sc Ac und]
-4.7 -8.2 76 -9 -8 по сезону 1021.4 993.4
12 14.02 В 2 10 км {снег} 10/8 570 м
[Sc Ac und]
-4.5 -8.4 74 -9 -8 прохладно 1021.8 993.8
15 14.02 В 1 10 км 10/6 700 м
[Sc Ac und]
-4.5 -8.0 77 -7 -7 по сезону 1022.3 994.3
18 14.02 В 2 10 км 10/10 540 м
[Sc]
-5.0 -8.2 78 -9 -9 по сезону 1023.2 995.1 -4.1 0.0
21 14.02 В 1 10 км 10/8 500 м
[Sc Ac und]
-6.0 -9.1 79 -8 -8 по сезону 1024.4 996.2
00 15.02 В 1 10 км 10/10 540 м
[Sc]
-5.5 -8.0 83 -8 -8 по сезону 1024.5 996.3
03 15.02 В 1 10 км 10/10 400 м
[St]
-5.5 -7.7 84 -8 -8 по сезону 1024.9 996.7
06 15.02 В 1 10 км слабый снег 10/8 300 м
[Frnb As op]
-5.2 -6.9 88 -8 -8 по сезону 1026.1 997.9 -6.8 0.2 11
09 15.02 В 2 10 км {снег} 10/8 330 м
[St As trans]
-3.9 -5.7 87 -8 -8 по сезону 1026.7 998.6
12 15.02 СВ 2 10 км {снег} 10/10 330 м
[St]
-2.5 -5.1 82 -6 -6 по сезону 1026.5 998.6
15 15.02 СВ 2 4000 м слабый снег 10/9 210 м
[Frnb As op]
-3.1 -4.1 93 -7 -7 по сезону 1027.4 999.4
18 15.02 В 1 4000 м слабый снег 10/10 210 м
[Frnb]
-3.3 -4.4 92 -6 -6 по сезону 1027.8 999.8 -2.5 1
21 15.02 В 1 4000 м дымка {снег} 10/10 180 м
[St]
-2.8 -3.8 93 -5 -5 по сезону 1027.7 999.7
00 16.02 ЮВ 1 1000 м дымка {снег} 10/10 180 м
[St]
-2.1 -2.7 96 -4 -4 по сезону 1027.8 999.9
03 16.02 ЮВ 1 1000 м дымка 10/10 180 м
[St]
-1.7 -2.2 96 -4 -4 по сезону 1027.3 999.5
06 16.02 Ю 2 500 м туман ?/? -2.0 -2.0 100 -6 -6 по сезону 1027.4 999.5 -3.4 0.2 12
09 16.02 Ю 2 2000 м в посл. час снег {туман} 10/10 240 м
[St]
-1.0 -2.0 93 -5 -5 по сезону 1026.8 999.1
12 16.02 Ю 2 4000 м слабый ливневой снег 10/10 270 м
[Cb cap]
-0.3 -2.4 86 -4 -4 по сезону 1026.0 998.3
15 16.02 Ю 1 4000 м слабый снег {ливн. осадки} 10/8 240 м
[Frnb As op]
-0.3 -2.1 88 -2 -2 по сезону 1025.2 997.6
18 16.02 С 1 2000 м слабый снег {ливн. осадки} 10/10 180 м
[Frnb]
-0.4 -1.3 94 -3 -3 по сезону 1025.0 997.4 -0.3 1
21 16.02 З 1 4000 м дымка {снег} 10/10 210 м
[St]
-0.3 -1.2 94 -2 -2 по сезону 1024.7 997.1
00 17.02 З 1 4000 м дымка {снег} 4/0
[Ac trans]
-1.1 -2.4 91 -3 -3 по сезону 1024.8 997.1
03 17.02 СЗ 1 4000 м дымка 10/10 330 м
[St]
-0.5 -2.0 90 -3 -3 по сезону 1024.6 997.0
06 17.02 З 1 10 км 10/6 700 м
[Sc Ac trans]
-0.4 -2.8 84 -2 -2 тепло 1024.6 997.0 -1.4 0.0 12
09 17.02 З 2 10 км 3/1 600 м
[Sc Ci fib]
+2.4 -3.5 65 -0 +4 тепло 1024.4 997.0
12 17.02 СЗ 2 10 км 4/4 1000 м
[Sc]
+3.8 -4.6 54 +2 +4 тепло 1023.0 995.8
15 17.02 З 1 10 км 5/3 600 м
[Sc Ac trans]
+3.0 -3.5 62 +2 +2 тепло 1022.8 995.5
18 17.02 ЮЗ 1 10 км 9/0
[Ac trans]
-0.2 -2.6 84 -2 -2 по сезону 1023.3 995.7 +4.7
21 17.02 З 1 4000 м дымка 8/8 720 м
[Sc]
-2.5 -3.5 93 -5 -5 по сезону 1022.8 995.0
00 18.02 ЮЗ 1 4000 м дымка 9/0
[Ac trans]
-2.2 -3.5 91 -5 -5 по сезону 1022.6 994.8
03 18.02 ЮЗ 1 4000 м дымка 10/10 240 м
[St]
-1.8 -3.7 87 -4 -4 по сезону 1021.9 994.2
06 18.02 СЗ 1 4000 м слабый ливневой снег 10/10 210 м
[Cb cap]
-2.3 -3.5 91 -5 -5 по сезону 1022.3 994.5 -2.6 1 12
09 18.02 СЗ 1 4000 м слабый ливневой снег 10/10 270 м
[Cb cap]
-0.6 -2.4 88 -3 -3 по сезону 1022.0 994.4
12 18.02 СЗ 1 10 км {ливн. осадки} 10/8 600 м
[Cb cap As op]
+1.8 -2.2 75 0 +1 по сезону 1021.6 994.3
15 18.02 З 1 10 км 10/0
[Ac As]
+1.2 -2.3 77 -0 -0 тепло 1021.7 994.3
18 18.02 СЗ 2 4000 м слабый ливневой снег 10/10 300 м
[Cb cap]
-0.4 -1.3 94 -4 -4 по сезону 1023.2 995.6 +2.3 0.9
21 18.02 СЗ 1 10 км {ливн. осадки} 9/3 600 м
[Cb cap Ac trans]
-2.3 -7.4 68 -4 -4 по сезону 1024.2 996.4
00 19.02 СЗ 2 10 км в посл. час ливневой снег 10/6 600 м
[Cb cap Ac und]
-3.1 -7.3 73 -7 -7 по сезону 1024.8 996.9
03 19.02 СЗ 1 10 км в посл. час ливневой снег 10/8 630 м
[Cb cap Ac und]
-3.7 -6.6 80 -6 -6 по сезону 1025.1 997.1
06 19.02 СЗ 1 10 км слабый снег {ливн. осадки} 8/8 800 м
[Sc]
-5.6 -7.8 84 -8 -8 по сезону 1025.9 997.7 -6.0 0.3 10
09 19.02 З 1 10 км {снег} 10/8 720 м
[Sc Ac und]
-2.5 -9.0 61 -4 -4 по сезону 1026.2 998.3
12 19.02 СЗ 3 10 км {снег} 9/8 750 м
[Cb cap Ac trans]
-0.9 -7.4 61 -5 -5 по сезону 1025.6 997.9
15 19.02 СЗ 1 10 км ясно -0.9 -4.8 75 -3 -3 по сезону 1025.3 997.6
18 19.02 СЗ 1 10 км ясно -3.4 -5.8 83 -6 -6 по сезону 1026.0 998.0 -0.9 0.0
21 19.02 З 1 10 км 10/0
[Ac und]
-4.6 -7.7 79 -7 -7 по сезону 1025.9 997.8
00 20.02 З 1 10 км 9/0
[Ac trans]
-5.4 -8.3 80 -8 -8 по сезону 1026.3 998.1
03 20.02 штиль 0 10 км 9/0
[Ac trans]
-6.7 -8.7 86 -8 -8 по сезону 1026.0 997.7
06 20.02 штиль 0 10 км 4/0
[Ac trans Ci fib]
-8.4 -9.9 89 -9 -8 по сезону 1026.5 998.0 -9.4 10
09 20.02 З 1 10 км 9/0
[Ac trans]
-2.8 -9.0 62 -5 -2 по сезону 1026.0 998.1
12 20.02 СВ 1 10 км 9/0
[Ac trans]
+1.2 -7.8 51 0 +2 тепло 1024.7 997.2
15 20.02 Ю 1 10 км 3/0
[Ac trans Ci fib]
+0.4 -7.0 58 -1 -1 по сезону 1024.4 996.8
18 20.02 штиль 0 10 км ясно -4.8 -8.8 74 -6 -6 по сезону 1025.1 997.0 +1.4
21 20.02 штиль 0 10 км ясно -8.2 -10.0 87 -9 -9 по сезону 1025.4 996.9
00 21.02 штиль 0 4000 м дымка ясно -9.4 -10.1 95 -10 -10 по сезону 1025.9 997.3

 

Местоположение метеостанции Житомир (Житомирская область, Украина): широта 50.23 долгота 28.73 высота над уровнем моря 224 м.

В архиве по умолчанию представлена погода в Житомире за последнюю неделю. Архивные данные за месяц целиком и за предыдущие месяцы, начиная с января 2011 года, Вы можете получить, выбрав интересующий диапазон дат из раскрывающегося списка и нажав кнопку "Ввод!".

Внимание! Время в таблицах - всемирное. Для получения местного времени необходимо прибавить поправку, которая в Житомире равна 2 ч.

Смотрите также архив погоды в соседних городах и на ближайших метеорологических станциях:

Погода в Белополе (Винницкая область, Украина) (46 км)
Погода в Тетереве (Киевская область, Украина) (80 км)
Погода в Коростени (Житомирская область, Украина) (80 км)
Погода в Фастове (Киевская область, Украина) (86 км)
Погода в Новограде-Волынском (Житомирская область, Украина) (88 км)
Погода в Виннице (Винницкая область, Украина) (112 км)
Погода в Белой Церкви (Киевская область, Украина) (113 км)
Погода в Шепетовке (Хмельницкая область, Украина) (121 км)
Погода в Овруче (Житомирская область, Украина) (121 км)
Погода в Хмельнике (Винницкая область, Украина) (130 км)

Пояснения к столбцам:

Ветер - указаны скорость ветра в м/с - средняя за 10 мин, порывы в срок и между сроками (в фигурных скобках) и направление, откуда дует ветер: С - северный, СВ - северо-восточный, В - восточный, ЮВ - юго-восточный, Ю - южный, ЮЗ - юго-западный, З - западный, СЗ - северо-западный.
Видимость - горизонтальная дальность видимости в метрах или километрах. При видимости от 1 до 10 км при отсутствии осадков обычно наблюдается дымка, при ухудшении видимости до 1 км и менее - туман. В сухую погоду видимость может ухудшаться дымом, пылью или мглою.
Явления - указаны атмосферные явления, наблюдавшиеся в срок или в последний час перед сроком; фигурными скобками обозначены явления, наблюдавшиеся между сроками (за 1-3 часа до срока); квадратными скобками обозначены град или гололедные отложения с указанием их диаметра в мм.
Облачность - указаны через наклонную черту общая и нижняя облачность в баллах и высота нижней границы облаков в метрах; квадратными скобками обозначены формы облаков: Ci - перистые, Cs - перисто-слоистые, Cc - перисто-кучевые, Ac - высококучевые, As - высокослоистые, Sc - слоисто-кучевые, Ns - слоисто-дождевые, Cu - кучевые, Cb - кучево-дождевые. Подробнее классификацию облаков см. в Атласе облаков (PDF).
T - Температура воздуха - температура, измеренная на высоте 2 м над землей.
Td - Температура точки росы - температура, при понижении до которой содержащийся в воздухе водяной пар достигнет насыщения.
f - Относительная влажность воздуха - влажноcть воздуха, измеренная на высоте 2 м над землей.
Te - Эффективная температура - температура, которую ощущает одетый по сезону человек в тени. Характеристика душности погоды. При расчете учитывается влияние влажности воздуха и скорости ветра на теплоощущения человека.
Tes - Эффективная температура на солнце - температура, которую ощущает человек, с поправкой на солнечный нагрев. Характеристика знойности погоды. Зависит от высоты солнца над горизонтом, облачности и скорости ветра. Ночью, в пасмурную погоду, а также при ветре 12 м/с и более поправка равна нулю.
P - Атмосферное давление - приведенное к уровню моря атмосферное давление.
Po - Атмосферное давление - измеренное на уровне метеостанции атмосферное давление.
Tmin - Минимальная температура - минимум температуры воздуха на высоте 2 м над землей.
Tmax - Максимальная температура - максимум температуры воздуха на высоте 2 м над землей.
R - Количество осадков - Количество выпавших осадков за период времени, мм. При наведении курсора мыши на число - период времени, за который выпало указанное количество осадков.
R24 - Количество осадков - Количество выпавших осадков за 24 часа, мм.
S - Снежный покров - Высота снежного покрова, см. При наведении курсора мыши на число - состояние снежного покрова и степень покрытия местности в баллах.